This is the latest recevied weather packets stored in our database for station/object HARMALA. If no packets are shown the sender has not sent any weather packets the latest 10 day(s).
| Time | Temp. | Humidity | Pressure | Rain* | Wind** | Luminosity | Snow |
|---|---|---|---|---|---|---|---|
| 1777919235 | 9.44° C | 70% | 1000.2 hPa | 0 mm | - | - | - |
| 1777918035 | 9.44° C | 66% | 1000 hPa | 0 mm | - | - | - |
| 1777916835 | 9.44° C | 66% | 1000 hPa | 0 mm | - | - | - |
| 1777915635 | 10° C | 64% | 1000.1 hPa | 0 mm | - | - | - |
| 1777914435 | 10° C | 62% | 1000.1 hPa | 0 mm | - | - | - |
| 1777913235 | 10° C | 62% | 1000 hPa | 0 mm | - | - | - |
| 1777912035 | 10° C | 59% | 1000 hPa | 0 mm | - | - | - |
| 1777910835 | 10.56° C | 54% | 999.9 hPa | 0 mm | - | - | - |
| 1777909634 | 10.56° C | 60% | 1000 hPa | 0 mm | - | - | - |
| 1777908435 | 10.56° C | 62% | 1000.2 hPa | 0 mm | - | - | - |
| 1777907234 | 10.56° C | 63% | 1000.1 hPa | 0 mm | - | - | - |
| 1777906034 | 10.56° C | 61% | 1000.2 hPa | 0 mm | - | - | - |
| 1777904834 | 10.56° C | 54% | 1000.3 hPa | 0 mm | - | - | - |
| 1777903634 | 11.11° C | 52% | 1000.4 hPa | 0 mm | - | - | - |
| 1777902434 | 11.11° C | 52% | 1000.5 hPa | 0 mm | - | - | - |
| 1777901234 | 11.67° C | 49% | 1000.7 hPa | 0 mm | - | - | - |
| 1777900034 | 11.11° C | 48% | 1000.9 hPa | 0 mm | - | - | - |
| 1777898834 | 12.22° C | 45% | 1000.9 hPa | 0 mm | - | - | - |
| 1777897634 | 10.56° C | 46% | 1001.2 hPa | 0 mm | - | - | - |
| 1777896434 | 10° C | 45% | 1001.3 hPa | 0 mm | - | - | - |
| 1777895234 | 10° C | 40% | 1001.5 hPa | 0 mm | - | - | - |
| 1777894033 | 10° C | 39% | 1001.7 hPa | 0 mm | - | - | - |
| 1777892833 | 8.89° C | 35% | 1001.9 hPa | 0 mm | - | - | - |
| 1777891633 | 9.44° C | 36% | 1002.1 hPa | 0 mm | - | - | - |
| 1777890433 | 8.89° C | 36% | 1002.4 hPa | 0 mm | - | - | - |
* Rain latest hour (hover to see other rain measurements)
** Current wind speed in m/s (hover to see current wind gust speed)